EW5171 Weather Reports


Display with metric or nautical units.
time (UTC)temp
F
wind
direction
speed
MPH
gust
MPH
rain 1hr
in
rain 24hr
in
rain mn
in
humidity
%
barometer
mb
20260506191525 50 26 0.0 1.0 0.00 0.00 0.00 66 1012.7
20260506191024 50 26 0.0 1.0 0.00 0.00 0.00 65 1012.6
20260506190523 51 26 0.0 0.0 0.00 0.00 0.00 64 1012.5
20260506190023 51 26 0.0 0.0 0.00 0.00 0.00 63 1012.5
20260506185524 51 26 0.0 1.0 0.00 0.00 0.00 62 1012.5
20260506185023 51 26 0.0 1.0 0.00 0.00 0.00 61 1012.4
20260506184523 52 26 0.0 1.0 0.00 0.00 0.00 59 1012.3
20260506184023 52 26 0.0 0.0 0.00 0.00 0.00 58 1012.3
20260506183523 52 26 0.0 0.0 0.00 0.00 0.00 58 1012.3
20260506183023 52 26 0.0 0.0 0.00 0.00 0.00 58 1012.2
20260506182522 53 26 0.0 1.0 0.00 0.00 0.00 58 1012.2
20260506182023 53 26 0.0 1.0 0.00 0.00 0.00 56 1012.1
20260506181521 54 26 0.0 0.0 0.00 0.00 0.00 55 1012.0
20260506181021 54 26 0.0 1.0 0.00 0.00 0.00 53 1012.0
20260506180521 54 26 0.0 1.0 0.00 0.00 0.00 52 1011.9
20260506180021 54 26 0.0 2.0 0.00 0.00 0.00 52 1011.9
20260506175520 54 26 0.0 4.0 0.00 0.00 0.00 50 1011.9
20260506175023 55 16 1.0 4.0 0.00 0.00 0.00 48 1011.8
20260506174521 55 65 0.0 2.0 0.00 0.00 0.00 46 1011.7
20260506174024 55 211 0.0 3.0 0.00 0.00 0.00 47 1011.7
20260506173520 56 54 0.0 3.0 0.00 0.00 0.00 45 1011.7
20260506173020 56 54 1.0 3.0 0.00 0.00 0.00 46 1011.7
20260506172520 56 54 0.0 2.0 0.00 0.00 0.00 44 1011.7
20260506172019 56 44 0.0 2.0 0.00 0.00 0.00 43 1011.6
20260506171521 56 55 0.0 3.0 0.00 0.00 0.00 41 1011.6
20260506171019 56 55 1.0 3.0 0.00 0.00 0.00 42 1011.6
20260506170519 56 18 0.0 2.0 0.00 0.00 0.00 41 1011.6
20260506170021 56 57 0.0 3.0 0.00 0.00 0.00 41 1011.6
20260506165519 56 51 1.0 4.0 0.00 0.00 0.00 39 1011.5
20260506165018 57 51 2.0 4.0 0.00 0.00 0.00 38 1011.5
20260506164518 58 58 1.0 4.0 0.00 0.00 0.00 38 1011.5
20260506164017 58 33 0.0 4.0 0.00 0.00 0.00 39 1011.5
20260506163517 58 128 1.0 4.0 0.00 0.00 0.00 39 1011.5
20260506163031 58 355 0.0 3.0 0.00 0.00 0.00 38 1011.5
20260506162521 58 55 1.0 4.0 0.00 0.00 0.00 39 1011.5
20260506162017 59 113 1.0 5.0 0.00 0.00 0.00 39 1011.5
20260506161516 59 69 2.0 5.0 0.00 0.00 0.00 38 1011.5
20260506161016 59 20 0.0 2.0 0.00 0.00 0.00 38 1011.4
20260506160516 59 42 0.0 5.0 0.00 0.00 0.00 37 1011.4
20260506160117 58 42 0.0 5.0 0.00 0.00 0.00 40 1011.4
20260506155515 58 265 1.0 5.0 0.00 0.00 0.00 39 1011.4
20260506155016 59 84 2.0 5.0 0.00 0.00 0.00 38 1011.4
20260506154515 59 38 2.0 5.0 0.00 0.00 0.00 38 1011.4
20260506154115 59 350 1.0 6.0 0.00 0.00 0.00 39 1011.4
20260506153514 59 333 1.0 4.0 0.00 0.00 0.00 40 1011.4
20260506153015 58 74 2.0 7.0 0.00 0.00 0.00 40 1011.4
20260506152514 59 71 3.0 7.0 0.00 0.00 0.00 37 1011.4
20260506152019 59 40 2.0 6.0 0.00 0.00 0.00 39 1011.5
20260506151512 58 39 2.0 6.0 0.00 0.00 0.00 38 1011.4
20260506151013 58 33 1.0 5.0 0.00 0.00 0.00 41 1011.5
20260506150514 57 44 2.0 6.0 0.00 0.00 0.00 40 1011.5
20260506150012 58 34 4.0 7.0 0.00 0.00 0.00 39 1011.5
20260506145515 58 348 2.0 9.0 0.00 0.00 0.00 39 1011.6
20260506145013 58 67 2.0 7.0 0.00 0.00 0.00 40 1011.5
20260506144512 58 57 2.0 7.0 0.00 0.00 0.00 39 1011.6
20260506144012 58 46 2.0 7.0 0.00 0.00 0.00 40 1011.5
20260506143512 59 53 4.0 7.0 0.00 0.00 0.00 38 1011.6
20260506143011 59 81 2.0 7.0 0.00 0.00 0.00 41 1011.6
20260506142510 59 40 2.0 5.0 0.00 0.00 0.00 41 1011.6
20260506142011 58 17 2.0 5.0 0.00 0.00 0.00 41 1011.6
20260506141510 58 348 2.0 9.0 0.00 0.00 0.00 40 1011.8
20260506141010 58 59 3.0 9.0 0.00 0.00 0.00 39 1011.7
20260506140510 58 67 2.0 8.0 0.00 0.00 0.00 42 1011.7
20260506140010 58 119 2.0 8.0 0.00 0.00 0.00 41 1011.6
20260506135510 58 325 3.0 9.0 0.00 0.00 0.00 41 1011.7
20260506135011 58 45 3.0 9.0 0.00 0.00 0.00 43 1011.8
20260506134509 59 72 3.0 6.0 0.00 0.00 0.00 41 1011.8
20260506134011 59 164 2.0 9.0 0.00 0.00 0.00 41 1011.8
20260506133508 59 26 3.0 9.0 0.00 0.00 0.00 40 1011.8
20260506133008 58 71 2.0 9.0 0.00 0.00 0.00 39 1011.7
20260506132508 58 328 2.0 9.0 0.00 0.00 0.00 39 1011.8
20260506132007 58 75 4.0 10.0 0.00 0.00 0.00 37 1011.8
20260506131513 58 34 3.0 10.0 0.00 0.00 0.00 38 1011.8
20260506131007 59 35 4.0 9.0 0.00 0.00 0.00 37 1011.8
20260506130509 59 57 2.0 8.0 0.00 0.00 0.00 39 1011.8
20260506130007 59 17 2.0 8.0 0.00 0.00 0.00 39 1011.8
20260506125505 59 346 1.0 6.0 0.00 0.00 0.00 38 1011.8
20260506125005 59 39 2.0 6.0 0.00 0.00 0.00 39 1011.8
20260506124505 59 17 2.0 6.0 0.00 0.00 0.00 38 1011.8
20260506124005 59 62 2.0 6.0 0.00 0.00 0.00 37 1011.8
20260506123505 60 54 3.0 6.0 0.00 0.00 0.00 37 1011.9
20260506123005 59 355 1.0 9.0 0.00 0.00 0.00 39 1011.9
20260506122505 59 250 2.0 9.0 0.00 0.00 0.00 40 1011.9
20260506122003 59 59 3.0 8.0 0.00 0.00 0.00 39 1011.9
20260506121504 59 346 1.0 6.0 0.00 0.00 0.00 39 1011.9
20260506121003 60 20 1.0 6.0 0.00 0.00 0.00 36 1012.0
20260506120503 60 80 1.0 6.0 0.00 0.00 0.00 35 1012.0
20260506120002 60 355 2.0 6.0 0.00 0.00 0.00 36 1012.0
20260506115504 60 337 1.0 5.0 0.00 0.00 0.00 35 1012.0
20260506115002 59 34 2.0 4.0 0.00 0.00 0.00 37 1012.1
20260506114607 58 13 2.0 9.0 0.00 0.00 0.00 38 1012.0
20260506114101 58 322 3.0 9.0 0.00 0.00 0.00 39 1012.1
20260506113600 58 349 3.0 6.0 0.00 0.00 0.00 35 1012.2
20260506113059 59 28 2.0 7.0 0.00 0.00 0.00 38 1012.1
20260506112559 59 62 3.0 8.0 0.00 0.00 0.00 36 1012.0
20260506112057 59 28 2.0 9.0 0.00 0.00 0.00 38 1012.1
20260506111558 59 19 2.0 9.0 0.00 0.00 0.00 36 1012.1
20260506111057 59 61 2.0 5.0 0.00 0.00 0.00 38 1012.1
20260506110557 59 51 2.0 7.0 0.00 0.00 0.00 41 1012.2
20260506105558 59 129 2.0 4.0 0.00 0.00 0.00 42 1012.2
20260506105055 59 71 2.0 5.0 0.00 0.00 0.00 42 1012.2
20260506104554 59 63 2.0 5.0 0.00 0.00 0.00 42 1012.2
20260506104053 59 90 2.0 5.0 0.00 0.00 0.00 43 1012.2
20260506103552 58 58 2.0 5.0 0.00 0.00 0.00 44 1012.2
20260506103052 58 65 1.0 7.0 0.00 0.00 0.00 44 1012.2
20260506102551 58 50 3.0 8.0 0.00 0.00 0.00 40 1012.2
20260506102051 58 63 1.0 8.0 0.00 0.00 0.00 42 1012.2
20260506101559 58 67 2.0 7.0 0.00 0.00 0.00 40 1012.3
20260506101053 58 154 3.0 7.0 0.00 0.00 0.00 40 1012.3
20260506100551 58 46 2.0 5.0 0.00 0.00 0.00 43 1012.2
20260506100050 58 53 2.0 6.0 0.00 0.00 0.00 43 1012.3
20260506095554 57 163 2.0 8.0 0.00 0.00 0.00 42 1012.3
20260506095048 57 109 3.0 8.0 0.00 0.00 0.00 40 1012.2
20260506094607 58 71 3.0 6.0 0.00 0.00 0.00 42 1012.2
20260506094047 58 40 2.0 5.0 0.00 0.00 0.00 43 1012.3
20260506093548 58 59 2.0 5.0 0.00 0.00 0.00 43 1012.2
20260506093052 58 43 2.0 5.0 0.00 0.00 0.00 43 1012.2
20260506092545 57 133 2.0 5.0 0.00 0.00 0.00 44 1012.2
20260506092044 57 112 1.0 4.0 0.00 0.00 0.00 44 1012.2
20260506091544 57 46 2.0 5.0 0.00 0.00 0.00 42 1012.2
20260506091043 57 64 2.0 6.0 0.00 0.00 0.00 42 1012.3
20260506090543 58 79 1.0 8.0 0.00 0.00 0.00 41 1012.3
20260506090041 57 37 2.0 8.0 0.00 0.00 0.00 40 1012.3
20260506085540 57 74 1.0 4.0 0.00 0.00 0.00 40 1012.2
20260506085038 57 55 1.0 5.0 0.00 0.00 0.00 42 1012.2
20260506084538 56 53 2.0 5.0 0.00 0.00 0.00 41 1012.2
20260506084039 56 149 2.0 5.0 0.00 0.00 0.00 39 1012.2
20260506083537 56 63 2.0 5.0 0.00 0.00 0.00 39 1012.1
20260506083036 56 47 2.0 5.0 0.00 0.00 0.00 38 1012.1
20260506082533 56 52 1.0 4.0 0.00 0.00 0.00 39 1012.1
20260506082033 56 81 1.0 4.0 0.00 0.00 0.00 37 1012.1
20260506081531 56 53 1.0 5.0 0.00 0.00 0.00 37 1012.1
20260506081031 55 32 0.0 4.0 0.00 0.00 0.00 44 1012.1
20260506080531 55 117 1.0 4.0 0.00 0.00 0.00 43 1012.1
20260506073527 56 55 0.0 4.0 0.00 0.00 0.00 42 1012.2
20260506073026 55 82 1.0 4.0 0.00 0.00 0.00 42 1012.1
20260506072524 55 110 1.0 4.0 0.00 0.00 0.00 42 1012.1
20260506072022 55 67 1.0 4.0 0.00 0.00 0.00 43 1012.2
20260506071528 54 49 1.0 4.0 0.00 0.00 0.00 44 1012.1
20260506071020 54 54 1.0 3.0 0.00 0.00 0.00 44 1012.1
20260506070518 54 136 0.0 3.0 0.00 0.00 0.00 44 1012.1
20260506062509 49 53 0.0 3.0 0.00 0.00 0.00 73 1012.0
20260506062005 48 186 0.0 2.0 0.00 0.00 0.00 80 1012.1
20260506061508 47 217 1.0 3.0 0.00 0.00 0.00 84 1012.1
20260506061003 46 258 0.0 2.0 0.00 0.00 0.00 92 1012.1
20260506060502 45 258 0.0 4.0 0.00 0.00 0.00 94 1012.0
20260506060105 44 51 0.0 4.0 0.00 0.00 0.00 95 1012.1
20260506051046 38 171 0.0 0.0 0.00 0.00 0.00 95 1012.2
20260506050545 37 171 0.0 0.0 0.00 0.00 0.00 95 1012.2
20260506045043 36 171 0.0 0.0 0.00 0.00 0.00 95 1012.1
20260506044546 35 171 0.0 0.0 0.00 0.00 0.00 94 1012.1
20260506044045 35 171 0.0 0.0 0.00 0.00 0.00 94 1012.0
20260506043541 35 171 0.0 0.0 0.00 0.00 0.00 95 1012.1
20260506043041 35 171 0.0 0.0 0.00 0.00 0.00 94 1012.1
20260506042541 35 171 0.0 0.0 0.00 0.00 0.00 95 1012.1
20260506042040 34 171 0.0 0.0 0.00 0.00 0.00 94 1012.0
20260506041539 34 171 0.0 0.0 0.00 0.00 0.00 94 1012.1
20260506041039 34 171 0.0 0.0 0.00 0.00 0.00 94 1012.2
20260506040539 33 171 0.0 0.0 0.00 0.00 0.00 94 1012.1
20260506040055 33 171 0.0 0.0 0.00 0.00 0.00 94 1012.2
20260506035538 33 171 0.0 0.0 0.00 0.00 0.00 94 1012.2
20260506035037 33 171 0.0 0.0 0.00 0.00 0.00 94 1012.2
20260506034537 33 171 0.0 0.0 0.00 0.00 0.00 94 1012.2
20260506034035 33 171 0.0 0.0 0.00 0.00 0.00 94 1012.2
20260506033535 32 171 0.0 0.0 0.00 0.00 0.00 93 1012.2
20260506033034 32 171 0.0 0.0 0.00 0.00 0.00 93 1012.3
20260506032534 32 171 0.0 0.0 0.00 0.00 0.00 93 1012.3
20260506032035 32 171 0.0 0.0 0.00 0.00 0.00 93 1012.4
20260506031547 32 171 0.0 0.0 0.00 0.00 0.00 93 1012.5
20260506031032 32 171 0.0 0.0 0.00 0.00 0.00 93 1012.4
20260506030532 32 171 0.0 0.0 0.00 0.00 0.00 93 1012.6
20260506030031 33 171 0.0 0.0 0.00 0.00 0.00 93 1012.5
20260506025530 33 171 0.0 0.0 0.00 0.00 0.00 93 1012.5
20260506025030 33 171 0.0 0.0 0.00 0.00 0.00 93 1012.5
20260506024530 33 171 0.0 0.0 0.00 0.00 0.00 93 1012.4
20260506024031 33 171 0.0 0.0 0.00 0.00 0.00 93 1012.4
20260506023531 33 171 0.0 0.0 0.00 0.00 0.00 93 1012.5
20260506023030 33 171 0.0 0.0 0.00 0.00 0.00 93 1012.6
20260506022528 33 171 0.0 0.0 0.00 0.00 0.00 93 1012.5
20260506022028 33 171 0.0 0.0 0.00 0.00 0.00 93 1012.6
20260506021528 33 171 0.0 0.0 0.00 0.00 0.00 92 1012.6
20260506021028 33 171 0.0 0.0 0.00 0.00 0.00 92 1012.5
20260506020530 33 171 0.0 0.0 0.00 0.00 0.00 92 1012.6
20260506020027 33 171 0.0 0.0 0.00 0.00 0.00 92 1012.5
20260506015525 33 171 0.0 0.0 0.00 0.00 0.00 92 1012.5
20260506015026 33 171 0.0 0.0 0.00 0.00 0.00 92 1012.5
20260506014526 33 171 0.0 0.0 0.00 0.00 0.00 92 1012.4
20260506014024 33 171 0.0 0.0 0.00 0.00 0.00 92 1012.4
20260506013525 33 171 0.0 0.0 0.00 0.00 0.00 92 1012.4
20260506013024 33 171 0.0 0.0 0.00 0.00 0.00 92 1012.3
20260506012524 34 171 0.0 0.0 0.00 0.00 0.00 92 1012.3
20260506012025 34 171 0.0 0.0 0.00 0.00 0.00 92 1012.4
20260506011524 34 171 0.0 0.0 0.00 0.00 0.00 92 1012.3
20260506011023 34 171 0.0 0.0 0.00 0.00 0.00 92 1012.2
20260506010522 34 171 0.0 0.0 0.00 0.00 0.00 91 1012.2
20260506010020 34 171 0.0 0.0 0.00 0.00 0.00 91 1012.2
20260506005520 35 171 0.0 0.0 0.00 0.00 0.00 91 1012.2
20260506005020 35 171 0.0 0.0 0.00 0.00 0.00 91 1012.2
20260506004524 36 171 0.0 0.0 0.00 0.00 0.00 92 1012.2
20260506004020 36 171 0.0 0.0 0.00 0.00 0.00 92 1012.2
20260506003519 36 171 0.0 0.0 0.00 0.00 0.00 92 1012.2
20260506003018 36 171 0.0 0.0 0.00 0.00 0.00 92 1012.2
20260506002517 35 171 0.0 0.0 0.00 0.00 0.00 92 1012.1
20260506002017 35 171 0.0 0.0 0.00 0.00 0.00 92 1012.2
20260506001516 35 171 0.0 0.0 0.00 0.00 0.00 91 1012.2
20260506001016 35 171 0.0 0.0 0.00 0.00 0.00 91 1012.2
20260506000516 35 171 0.0 0.0 0.00 0.00 0.00 91 1012.1
20260506000018 35 171 0.0 0.0 0.00 0.00 0.00 91 1012.1
20260505235517 35 171 0.0 0.0 0.00 0.00 0.00 91 1012.2
20260505235015 35 171 0.0 0.0 0.00 0.00 0.00 90 1012.2
20260505234514 35 171 0.0 0.0 0.00 0.00 0.00 90 1012.2
20260505234014 35 171 0.0 0.0 0.00 0.00 0.00 90 1012.2
20260505233514 35 171 0.0 0.0 0.00 0.00 0.00 90 1012.2
20260505233013 35 171 0.0 0.0 0.00 0.00 0.00 90 1012.3
20260505232514 35 171 0.0 0.0 0.00 0.00 0.00 90 1012.3
20260505232012 35 171 0.0 0.0 0.00 0.00 0.00 89 1012.4
20260505231511 35 171 0.0 0.0 0.00 0.00 0.00 89 1012.4
20260505231014 35 171 0.0 0.0 0.00 0.00 0.00 89 1012.4
20260505230510 36 171 0.0 0.0 0.00 0.00 0.00 89 1012.5
20260505230014 36 171 0.0 0.0 0.00 0.00 0.00 89 1012.5
20260505225511 36 171 0.0 0.0 0.00 0.00 0.00 89 1012.5
20260505225011 36 171 0.0 0.0 0.00 0.00 0.00 89 1012.5
20260505224509 35 171 0.0 0.0 0.00 0.00 0.00 89 1012.4
20260505224007 35 171 0.0 0.0 0.00 0.00 0.00 88 1012.3
20260505223512 35 171 0.0 0.0 0.00 0.00 0.00 87 1012.4
20260505223006 35 171 0.0 0.0 0.00 0.00 0.00 87 1012.4
20260505222506 36 171 0.0 0.0 0.00 0.00 0.00 87 1012.4
20260505222004 36 171 0.0 0.0 0.00 0.00 0.00 87 1012.5
20260505221507 36 171 0.0 0.0 0.00 0.00 0.00 86 1012.4
20260505221004 36 171 0.0 0.0 0.00 0.00 0.00 86 1012.4
20260505220501 36 171 0.0 0.0 0.00 0.00 0.00 86 1012.4
20260505220101 36 171 0.0 0.0 0.00 0.00 0.00 86 1012.4
20260505215600 37 171 0.0 0.0 0.00 0.00 0.00 85 1012.5
20260505215059 37 171 0.0 0.0 0.00 0.00 0.00 85 1012.5
20260505214601 37 171 0.0 0.0 0.00 0.00 0.00 84 1012.5
20260505214058 37 171 0.0 0.0 0.00 0.00 0.00 84 1012.6
20260505213556 38 171 0.0 0.0 0.00 0.00 0.00 83 1012.5
20260505213055 39 171 0.0 0.0 0.00 0.00 0.00 84 1012.5
20260505212555 39 171 0.0 0.0 0.00 0.00 0.00 85 1012.5
20260505212055 39 171 0.0 0.0 0.00 0.00 0.00 84 1012.5
20260505211607 39 171 0.0 0.0 0.00 0.00 0.00 84 1012.5
20260505211055 39 171 0.0 0.0 0.00 0.00 0.00 83 1012.5
20260505210554 39 171 0.0 0.0 0.00 0.00 0.00 82 1012.5
20260505210054 40 171 0.0 0.0 0.00 0.00 0.00 81 1012.5
20260505205554 40 171 0.0 0.0 0.00 0.00 0.00 80 1012.5
20260505205057 40 171 0.0 0.0 0.00 0.00 0.00 79 1012.5
20260505204600 41 171 0.0 0.0 0.00 0.00 0.00 78 1012.5
20260505204053 41 171 0.0 0.0 0.00 0.00 0.00 79 1012.5
20260505203557 41 171 0.0 0.0 0.00 0.00 0.00 79 1012.4
20260505203057 41 171 0.0 0.0 0.00 0.00 0.00 78 1012.4
20260505202554 41 171 0.0 0.0 0.00 0.00 0.00 78 1012.5
20260505202055 42 171 0.0 0.0 0.00 0.00 0.00 78 1012.4
20260505201558 42 171 0.0 0.0 0.00 0.00 0.00 77 1012.4
20260505201052 42 171 0.0 0.0 0.00 0.00 0.00 76 1012.4
20260505200553 43 171 0.0 0.0 0.00 0.00 0.00 75 1012.4
20260505200052 43 171 0.0 0.0 0.00 0.00 0.00 74 1012.4
20260505195552 44 171 0.0 0.0 0.00 0.00 0.00 73 1012.4
20260505195052 45 171 0.0 0.0 0.00 0.00 0.00 72 1012.4
20260505194608 46 171 0.0 0.0 0.00 0.00 0.00 70 1012.5
20260505194052 46 171 0.0 0.0 0.00 0.00 0.00 69 1012.4
20260505193551 47 171 0.0 0.0 0.00 0.00 0.00 69 1012.4
20260505193052 48 171 0.0 0.0 0.00 0.00 0.00 70 1012.4
20260505192552 48 171 0.0 1.0 0.00 0.00 0.00 71 1012.4
20260505192050 47 171 0.0 1.0 0.00 0.00 0.00 74 1012.4